sat.trackr.live / text

‹ back to catalog

STARLINK-34083

NORAD 63908 · 2025-095U

PAYLOAD ACTIVE UNKNOWN

§ Identity

Operator
Country
US
Launch date
2025-05-10
Launch site
AFETR
Launch vehicle
Mass (kg)
RCS (m²)

Purposes: comms

External: N2YO · Heavens-Above · Gunter

§ Orbital elements

Epoch: 2026-09-19T10:14:05.215200Z

Period
94.27 min
Inclination
43.0007°
Eccentricity
0.0000399
Mean motion
15.27603930 rev/d
Perigee alt
482.7 km
Apogee alt
483.3 km
Semi-major
6,861.1 km
B*
5.6972e-4
RAAN
162.4120°
Arg perigee
342.9714°
Mean anomaly
17.1125°
Rev number
7,740

§ Raw data

STARLINK-340831 63908U 25095U   26262.42644925  .00015460  00000+0  56972-3 0  99982 63908  43.0007 162.4120 0000399 342.9714  17.1125 15.27603930 77400

JSON: /api/v1/satellites/63908 · /tle

For live sub-satellite position, see the globe view (requires WebGL).

§ Visibility from observer

Set your observer location to see the next 7 days of passes ≥ 10°. The values pass through the URL so the page stays shareable.

No JS? Fill the form by hand. The geolocation button needs JavaScript.